Погода в Актаныше

Россия / Республика Татарстан     55°43′23″N   54°02′59″E
темп.,
°C
ветер,
м/с
пор.,
м/с
влажн.,
%
обл.,
%
осадки,
мм/ч
давл.,
гПа
погр.,
м
6 марта, сб
сб600:00−14зюз46959 0.0 100886
03:00−14юз499532 0.0 1010147
06:00−13зюз4109585 0.0 1010204
09:00−10з599393 0.3 1011456
12:00−9зсз4589100 0.1 1012539
15:00−8з4686100 0.1 1012708
18:00−14з448930 0.0 101360
21:00−16зюз349415 0.0 101337
7 марта, вс
вс700:00−17зюз239746 0.0 101234
03:00−16юз239768 0.1 101239
06:00−16юз339696 0.1 101161
09:00−14зюз359496 0.2 1011264
12:00−12зюз238999 0.0 1010386
15:00−11юз249299 0.1 1009354
18:00−16ююз339437 0.0 100920
21:00−15ю349534 0.0 100874
8 марта, пн
пн800:00−14ю5129384 0.0 1005267
03:00−11ю7139492 0.6 1002607
06:00−9ю81591100 0.8 998744
09:00−4юз91492100 1.1 9971107
12:00−5юз81272100 0.1 998934
15:00−5юз5128073 0.1 999991
18:00−7ююз5137972 0.0 999353
21:00−6юз7148786 0.1 999562
9 марта, вт
вт900:00−10юз499373 0.0 999166
03:00−12зюз6139146 0.0 1001277
06:00−14зюз5119342 0.0 1003262
09:00−12зюз599355 0.0 1005339
12:00−10зюз579093 0.0 1007516
15:00−10зюз588996 0.1 1008642
18:00−14зюз4895100 0.0 1008168
21:00−17зюз489686 0.1 1010138
10 марта, ср
ср1000:00−18зюз479767 0.0 1010123
03:00−21зюз469969 0.1 101193
06:00−22з469943 0.0 101295
09:00−18зсз359671 0.1 1012205
12:00−15сз458999 0.1 1014498
15:00−15ссз368999 0.1 1014505
18:00−18ссз239595 0.0 101522
21:00−19ссз239897 0.1 101744